Location: Estes Par
(40.3770°N, 105.5210°W)
Time: 09:10:32
(UTC-06:00)

Tiangong 2 - Pass Details

Date: 14 October 2017
Orbit: 388 x 391 km, 42.8° (Epoch: 23 October)

Event Time Altitude Azimuth Distance (km) Brightness Sun altitude
Exits shadow 04:30:49 10° 73° (ENE) 1,414 4.8 -31.2°
Drops below altitude 10° 04:30:53 10° 73° (ENE) 1,444 4.9 -31.2°
Sets 04:32:54 0° 74° (ENE) 2,272 6.1 -30.9°
